Location: Geçitköy
(36.7327°N, 29.8010°E)
Time: 06:09:50
(UTC+00:00)

OAO 3 Rocket - Pass Details

Date: 12 January 2026
Orbit: 613 x 661 km, 35.0° (Epoch: 14 February)

Event Time Altitude Azimuth Distance (km) Brightness Sun altitude
Rises 16:39:40 0° 276° (W) 2,981 7.9 -18.6°
Reaches altitude 10° 16:42:07 10° 270° (W) 2,066 6.9 -19.1°
Maximum altitude 16:46:43 45° 198° (SSW) 886 4.0 -20.0°
Enters shadow 16:49:07 25° 139° (SE) 1,316 4.4 -20.4°
